[[{"header":{"parameterUnit":"m.s-1","parameterCategory":1,"la1":30.2991,"la2":30.254,"lo1":-89.0895,"lo2":-89.0444,"dy":0.0017,"dx":0.0017,"nx":28,"ny":28,"refTime":"2023-08-05T21:00:00:Z","depth":0,"parameterNumber":2,"parameterNumberName":"U-component_of_WINDS"},"data":[0,0,0,0,0,0,0,0,0,0,0,0,0,0,0,0,0,0,0,0,0,0,0,0,0,0,0,0,0,0,0,0,0,0,0,0,0,0,0,0,0,0,0,0,0,0,0,0,0,0,0,0,0,0,0,0,0,0,5.8107,5.8108,0,5.8186,5.8187,5.8188,5.8088,5.8084,5.808,5.8077,5.8156,5.8162,5.8167,0,0,0,0,0,0,0,0,0,0,0,0,0,5.7865,5.787,5.8107,5.8108,5.8109,5.8186,5.8187,5.8188,5.8088,5.8084,5.8079,5.8075,5.8154,5.8161,5.8168,0,0,0,0,0,0,0,0,0,0,0,0,0,5.796,5.7872,5.8107,5.8068,5.8066,5.8186,5.8187,5.8188,5.8089,5.8084,5.8078,5.8073,5.8152,5.816,5.8168,5.8329,0,0,5.8194,5.8197,0,0,0,0,0,0,0,0,5.7954,5.7969,5.8073,5.8071,5.8068,5.8121,5.8131,5.8236,5.809,5.808,5.8077,5.807,5.8149,5.8157,5.8184,5.8333,5.8337,5.8195,5.82,5.8203,5.8205,0,0,0,0,0,0,0,5.7948,5.7965,5.8138,5.8074,5.8072,5.8046,5.8053,5.815,5.8144,5.8081,5.8074,5.8084,5.8147,5.8176,5.8185,5.8338,5.8194,5.8202,5.8207,5.821,5.8618,5.8623,0,0,0,0,0,0,5.7946,5.796,5.8135,5.814,5.7997,5.8055,5.8063,5.811,5.8143,5.8143,5.8089,5.8079,5.8165,5.8176,5.8188,5.8374,5.8203,5.8211,5.8216,5.8612,5.8619,5.8626,0,0,0,0,0,0,5.7942,5.7963,5.8132,5.8048,5.8068,5.8065,5.8118,5.8114,5.8144,5.8149,5.8147,5.8121,5.8161,5.8176,5.8294,5.8376,5.8215,5.8222,5.8605,5.8614,5.8622,5.8752,0,0,0,0,0,0,5.7935,5.7962,5.8024,5.805,5.8073,5.8239,5.8123,5.812,5.8158,5.8147,5.8178,5.8178,5.8158,5.8282,5.8302,5.8384,5.8229,5.8598,5.8609,5.862,5.874,5.8764,5.8784,0,0,0,0,0,5.7927,5.8058,5.8028,5.805,5.8151,5.8244,5.8256,5.8231,5.8166,5.8227,5.823,5.8177,5.8364,5.8295,5.8317,5.8403,5.8592,5.8606,5.8619,5.873,5.8759,5.8784,0,0,0,0,0,0,5.8042,5.8061,5.8028,5.8172,5.8207,5.8227,5.8304,5.8263,5.8317,5.8304,5.8269,5.8276,5.8402,5.8414,5.8337,5.8558,5.8467,5.8486,5.8545,5.8572,5.8594,5.8587,5.8235,0,0,0,0,0,5.8084,5.8159,5.8172,5.8297,5.8317,5.8308,5.8347,5.8324,5.8359,5.8373,5.8385,5.842,5.8486,5.853,5.8592,5.8742,5.8745,5.8812,5.8834,5.8852,5.8867,5.8943,5.8971,5.8669,5.8669,5.8668,0,0,5.8172,5.8191,5.8241,5.8321,5.8345,5.8422,5.8321,5.8407,5.8463,5.8386,5.8497,5.8507,5.8544,5.8678,5.8737,5.8692,5.8951,5.8869,5.8883,5.8888,5.8959,5.8988,5.9013,5.8678,5.8676,5.8675,0,0,5.8369,5.8394,5.8499,5.8525,5.8564,5.8556,5.8582,5.8608,5.8611,5.8722,5.8665,5.873,5.8847,5.8873,5.8902,5.9108,5.906,5.9129,5.9243,5.9318,5.9342,5.9363,5.9432,5.9458,5.9145,5.9146,5.9146,0,5.8473,5.8587,5.8558,5.8648,5.8683,5.8617,5.8721,5.8748,5.8805,5.883,5.8779,5.892,5.8941,5.9077,5.9127,5.9155,5.918,5.9124,5.9341,5.9362,5.938,5.9446,5.9473,5.9153,5.9152,5.9152,5.9151,0,5.8711,5.8791,5.8871,5.8926,5.8971,5.9068,5.9051,5.91,5.9072,5.907,5.9182,5.9204,5.9266,5.9298,5.9273,5.9431,5.9401,5.9347,5.9254,5.9418,5.9478,5.9504,5.9165,5.9162,5.9159,5.9157,0,0,5.8983,5.9019,5.9049,5.9071,5.9108,5.9168,5.9261,5.9322,5.9362,5.9404,5.9478,5.9576,5.9525,5.9558,5.9535,5.9601,5.9757,5.9537,5.9538,5.9574,5.9927,5.9965,5.9995,5.9727,5.9732,5.9735,5.9923,0,5.9177,5.9338,5.9313,5.9467,5.9538,5.9476,5.9556,5.9586,5.9586,5.9645,5.9644,5.9713,5.9642,5.9661,5.9724,5.9725,5.9827,5.9712,5.9792,5.9796,5.9781,6.0028,6.0069,6.0245,5.9947,5.9951,5.9954,0,5.9426,5.9474,5.9635,5.9657,5.9686,5.9759,5.9811,5.9869,5.9901,5.9896,5.9932,5.9896,5.9986,5.9895,6.0016,5.9938,5.9969,5.9975,5.9981,5.9985,5.9882,6.0034,6.0301,6.0325,5.9992,5.9989,5.9986,0,5.9603,5.9709,5.9817,5.9839,5.9869,5.992,5.9935,5.9961,5.9999,6.0044,6.0067,6.0124,6.0153,6.0197,6.0176,6.0112,6.03,6.0208,6.0295,6.0295,6.0335,6.0332,6.0606,6.0362,6.0362,6.0361,6.0361,0,5.982,5.992,5.9897,5.9963,6.0072,6.0043,6.0151,6.0158,6.0181,6.0246,6.0197,6.0259,6.023,6.0289,6.0274,6.0374,6.0389,6.0385,6.0379,6.0387,6.0387,6.0405,6.0391,6.0368,6.0367,6.0365,6.0364,0,6.0035,6.0024,6.0138,6.0156,6.0163,6.0242,6.0256,6.0317,6.0313,6.0395,6.0413,6.0406,6.0473,6.0457,6.0531,6.0521,6.0645,6.0626,6.0635,6.0628,6.0715,6.0705,6.1007,6.1043,6.078,6.0783,6.0785,0,6.0173,6.0248,6.0274,6.0314,6.0332,6.0398,6.0434,6.0408,6.0448,6.0488,6.0544,6.0606,6.0654,6.0764,6.0764,6.082,6.0799,6.0901,6.0806,6.0811,6.0795,6.0789,6.0794,6.0918,6.0921,6.0924,6.0926,0,6.0418,6.0408,6.0463,6.0517,6.0562,6.0603,6.0639,6.0675,6.0651,6.0698,6.0766,6.0803,6.0877,6.0938,6.0989,6.1002,6.0959,6.0956,6.0978,6.0985,6.0985,6.0982,6.0681,6.0948,6.0946,6.0944,6.0943,6.0942,6.0595,6.0657,6.0684,6.0746,6.0771,6.0805,6.0862,6.0864,6.092,6.0978,6.0959,6.1035,6.1061,6.1124,6.1144,6.1201,6.1162,6.1196,6.1204,6.1211,6.122,6.0979,6.1211,6.121,6.121,6.1209,6.1209,0,6.0833,6.0847,6.0905,6.0956,6.1005,6.0961,6.0998,6.1041,6.1109,6.1138,6.1185,6.1261,6.132,6.1325,6.1379,6.1424,6.1405,6.1439,6.1433,6.1436,6.1254,6.1227,6.1453,6.1453,6.1452,6.1452,6.1452,6.1452,6.0962,6.1063,6.1056,6.1168,6.1181,6.1254,6.1279,6.1309,6.1331,6.1418,6.1466,6.1469,6.1487,6.1542,6.1593,6.1592,6.1613,6.1653,6.1645,6.1474,6.1449,6.1426,6.14,6.1659,6.1659,6.1821,6.1823,6.1824]},{"header":{"parameterUnit":"m.s-1","parameterCategory":1,"la1":30.2991,"la2":30.254,"lo1":-89.0895,"lo2":-89.0444,"dy":0.0017,"dx":0.0017,"nx":28,"ny":28,"refTime":"2023-08-05T21:00:00:Z","depth":0,"parameterNumber":3,"parameterNumberName":"V-component_of_WINDS"},"data":[0,0,0,0,0,0,0,0,0,0,0,0,0,0,0,0,0,0,0,0,0,0,0,0,0,0,0,0,0,0,0,0,0,0,0,0,0,0,0,0,0,0,0,0,0,0,0,0,0,0,0,0,0,0,0,0,0,0,4.0868,4.0869,0,4.0993,4.0994,4.0995,4.0993,4.0991,4.0989,4.0988,4.1112,4.1117,4.1122,0,0,0,0,0,0,0,0,0,0,0,0,0,4.0622,4.0627,4.0868,4.0869,4.0871,4.0992,4.0994,4.0996,4.0993,4.0991,4.0989,4.0987,4.1111,4.1116,4.1122,0,0,0,0,0,0,0,0,0,0,0,0,0,4.0736,4.0628,4.0867,4.0884,4.0887,4.0992,4.0994,4.0996,4.0993,4.0991,4.0988,4.0986,4.1109,4.1116,4.1123,4.1219,0,0,4.1146,4.1149,0,0,0,0,0,0,0,0,4.073,4.0745,4.088,4.0883,4.0886,4.0975,4.0953,4.1071,4.0994,4.0953,4.0988,4.0985,4.1068,4.1079,4.1108,4.1225,4.123,4.1146,4.1151,4.1154,4.1156,0,0,0,0,0,0,0,4.0722,4.074,4.0917,4.0882,4.0886,4.0884,4.0897,4.0975,4.1023,4.0956,4.0956,4.0971,4.1069,4.1101,4.1111,4.1232,4.1146,4.1152,4.1157,4.116,4.143,4.1433,0,0,0,0,0,0,4.0711,4.0733,4.0913,4.0921,4.08,4.089,4.0905,4.0949,4.1022,4.1031,4.0973,4.0971,4.1089,4.1102,4.1115,4.123,4.1154,4.1161,4.1165,4.1428,4.1431,4.1434,0,0,0,0,0,0,4.0706,4.0727,4.0908,4.0827,4.085,4.0897,4.0946,4.0953,4.0984,4.1035,4.1043,4.0997,4.1088,4.1105,4.1193,4.1234,4.1164,4.117,4.1424,4.1429,4.1433,4.1462,0,0,0,0,0,0,4.0699,4.0725,4.0763,4.0828,4.0854,4.0985,4.0949,4.0957,4.0997,4.0994,4.1059,4.1068,4.1087,4.1182,4.12,4.1243,4.1176,4.1421,4.1426,4.1431,4.1458,4.1467,4.1475,0,0,0,0,0,4.069,4.0767,4.0765,4.0787,4.0903,4.0988,4.1003,4.1025,4.1,4.1038,4.107,4.1065,4.1227,4.1191,4.1211,4.1257,4.1418,4.1425,4.1431,4.1454,4.1465,4.1475,0,0,0,0,0,0,4.0705,4.0775,4.0775,4.0875,4.0925,4.0987,4.1036,4.1036,4.1094,4.1089,4.1113,4.1127,4.1215,4.1245,4.1203,4.1352,4.1319,4.133,4.133,4.1341,4.1349,4.134,4.1182,0,0,0,0,0,4.072,4.0784,4.0842,4.0924,4.095,4.0988,4.1026,4.1038,4.1091,4.1112,4.1151,4.1202,4.1263,4.1304,4.1364,4.1462,4.1475,4.1504,4.1512,4.1519,4.1528,4.158,4.1592,4.1455,4.1455,4.1455,0,0,4.0752,4.0798,4.0837,4.0928,4.0969,4.1033,4.1006,4.1076,4.1123,4.1122,4.1208,4.1238,4.1296,4.1389,4.1431,4.1416,4.1568,4.1527,4.1532,4.1537,4.1587,4.16,4.1612,4.1459,4.1458,4.1458,0,0,4.0842,4.0884,4.0957,4.0998,4.106,4.1084,4.1102,4.1163,4.1184,4.127,4.127,4.1326,4.1432,4.1473,4.1507,4.161,4.1607,4.1629,4.1674,4.1724,4.1735,4.1744,4.178,4.1792,4.1638,4.1638,4.1638,0,4.0873,4.0971,4.0994,4.1064,4.1103,4.1105,4.1178,4.1216,4.1294,4.132,4.1302,4.1435,4.1474,4.1575,4.16,4.1629,4.1647,4.1622,4.1732,4.1742,4.1751,4.1785,4.1798,4.164,4.164,4.164,4.1639,0,4.1006,4.1074,4.1124,4.12,4.1245,4.1316,4.1347,4.1389,4.1397,4.1423,4.1509,4.1556,4.1625,4.165,4.1658,4.1752,4.174,4.1727,4.1694,4.1766,4.1798,4.1811,4.1643,4.1642,4.1642,4.1641,0,0,4.111,4.1196,4.1214,4.1248,4.1315,4.1367,4.1437,4.1504,4.1539,4.1592,4.165,4.1739,4.1727,4.1766,4.1778,4.1823,4.1899,4.1803,4.1805,4.1819,4.2003,4.2012,4.2027,4.1897,4.19,4.1902,4.1998,0,4.1207,4.1332,4.1353,4.1462,4.1523,4.1526,4.1586,4.1633,4.1658,4.1713,4.1741,4.1803,4.1783,4.1806,4.185,4.1881,4.1936,4.1874,4.195,4.1952,4.1935,4.2044,4.2055,4.2143,4.2011,4.2013,4.2014,0,4.1337,4.1393,4.1508,4.1565,4.1592,4.1646,4.1708,4.1761,4.1813,4.1829,4.1871,4.1878,4.1949,4.1913,4.2008,4.1966,4.1997,4.2017,4.2021,4.2028,4.1987,4.2054,4.2172,4.2185,4.2035,4.2033,4.2032,0,4.14,4.1504,4.1586,4.1615,4.1684,4.1722,4.1752,4.1802,4.184,4.1894,4.1919,4.198,4.2014,4.206,4.2082,4.2054,4.2176,4.2143,4.2189,4.2189,4.2215,4.2213,4.2339,4.2237,4.2237,4.2236,4.2236,0,4.1505,4.1575,4.1615,4.1666,4.1743,4.1766,4.1841,4.187,4.1914,4.1969,4.1974,4.2025,4.2052,4.2106,4.2124,4.22,4.2215,4.2228,4.2232,4.2227,4.2225,4.2248,4.2242,4.224,4.2239,4.2238,4.2238,0,4.1589,4.1619,4.1708,4.1766,4.1782,4.1836,4.1885,4.1932,4.1957,4.2026,4.2043,4.2082,4.2146,4.2173,4.2251,4.2263,4.2349,4.2349,4.2332,4.2333,4.2378,4.2373,4.2523,4.2543,4.2428,4.2429,4.243,0,4.1653,4.1707,4.1771,4.1808,4.1839,4.1899,4.1939,4.1962,4.2002,4.2065,4.2104,4.2169,4.2221,4.2323,4.2357,4.2416,4.2416,4.2465,4.2425,4.2418,4.2416,4.2412,4.2417,4.2472,4.2473,4.2474,4.2475,0,4.1765,4.1777,4.1834,4.1896,4.1942,4.1992,4.204,4.207,4.21,4.2145,4.2211,4.2252,4.2331,4.2394,4.2455,4.2484,4.2484,4.2487,4.25,4.2496,4.2484,4.249,4.2351,4.2483,4.2482,4.2482,4.2481,4.2481,4.1841,4.1888,4.1939,4.2002,4.204,4.2085,4.2132,4.2163,4.2218,4.2286,4.2296,4.2365,4.2414,4.2496,4.2527,4.2581,4.2569,4.2589,4.2594,4.2598,4.2601,4.2476,4.2592,4.2592,4.2592,4.2592,4.2591,0,4.1951,4.1984,4.2041,4.2109,4.2157,4.2154,4.2206,4.2247,4.2308,4.2354,4.2405,4.248,4.254,4.2578,4.2639,4.2674,4.2675,4.2689,4.2686,4.2693,4.2609,4.259,4.2687,4.2687,4.2687,4.2687,4.2687,4.2687,4.2014,4.2093,4.2111,4.2208,4.224,4.2309,4.2339,4.238,4.2416,4.2499,4.255,4.2574,4.2616,4.268,4.2734,4.2744,4.2765,4.278,4.2788,4.2709,4.2699,4.2689,4.2672,4.2784,4.2785,4.2868,4.2868,4.2869]}]]